Skip Page Navigation
NASA JPL Caltech
NASA Logo - Jet Propulsion Laboratory + View the NASA Portal
+ Center for Near-Earth Object Studies
JPL Home Earth Solar System Stars & Galaxies Technology
JPL Solar System Dynamics
BODIES ORBITS EPHEMERIDES TOOLS PHYSICAL DATA DISCOVERY FAQ SITE MAP
IMPORTANT: The SSD Announcement email list is now available. Major changes are coming in the near future, including possible hostname and/or URL changes. To be notified of such changes, subscribe to this email list.

Please visit this page for more details.


JPL Small-Body Database Browser
Search: [ help ]  
58016 (2002 UH29)
Classification: Main-belt Asteroid          SPK-ID: 2058016
Ephemeris | Orbit Diagram | Orbital Elements | Mission Design | Physical Parameters | Discovery Circumstances ]

[ show orbit diagram ]
Orbital Elements at Epoch 2458600.5 (2019-Apr-27.0) TDB
Reference: JPL 24 (heliocentric ecliptic J2000)
 Element Value Uncertainty (1-sigma)   Units 
e .1393729710553636 4.6031e-08  
a 2.721559723061034 1.8305e-08 au
q 2.342247858553405 1.2706e-07 au
i 9.306205848998893 4.2431e-06 deg
node 133.7994643178995 3.16e-05 deg
peri 225.3157709600168 3.5047e-05 deg
M 275.9696679252057 1.6962e-05 deg
tp 2458983.288436222910
(2020-May-13.78843622)
7.9401e-05 TDB
period 1639.929697262056
4.49
1.6545e-05
4.53e-08
d
yr
n .2195216054694526 2.2148e-09 deg/d
Q 3.100871587568663 2.0857e-08 au
  Orbit Determination Parameters
   # obs. used (total)      758  
   data-arc span      8536 days (23.37 yr)  
   first obs. used      1995-01-28  
   last obs. used      2018-06-12  
   planetary ephem.      DE431  
   SB-pert. ephem.      SB431-N16  
   condition code      0  
   norm. resid. RMS      .55659  
   source      ORB  
   producer      Otto Matic  
   solution date      2018-Oct-04 01:26:25  

Additional Information
 Earth MOID = 1.34709 au 
 Jupiter MOID = 2.34638 au 
 T_jup = 3.325 
[ show covariance matrix ]

Ephemeris | Orbit Diagram | Orbital Elements | Mission Design | Physical Parameters | Discovery Circumstances ]

Physical Parameter Table
Parameter Symbol Value Units Sigma Reference Notes
absolute magnitude H 14.7   n/a MPO436188  
diameter diameter 5.493 km 0.129 urn:nasa:pds:neowise_diameters_albedos::2.0[mainbelt] (http://adsabs.harvard.edu/abs/2011ApJ...741...68M)  
geometric albedo albedo 0.070   0.021 urn:nasa:pds:neowise_diameters_albedos::2.0[mainbelt] (http://adsabs.harvard.edu/abs/2011ApJ...741...68M)  

58016 (2002 UH29)          Discovered 2002-Oct-31 by LINEAR at Socorro
Reference: 20030318/Numbers.arcLast Updated: 2004-04-19

Alternate Designations
 2002 UH29 = 1995 BK7 = 2004 CR128 
Ephemeris | Orbit Diagram | Orbital Elements | Mission Design | Physical Parameters | Discovery Circumstances ]
ABOUT SSD CREDITS/AWARDS PRIVACY/COPYRIGHT GLOSSARY LINKS
FirstGov 2020-Jan-24 14:20 UT
(server date/time)  
NASA Home Page
Site Manager:   Ryan S. Park
Webmaster  Alan B. Chamberlin